This demonstration page uses our WeatherBlox Daily Observations layout. Learn more.

Left ArrowRight Arrow

Hourly Observations for September 10, 2022

Temp ( °F °C ) Dew Point ( °F °C ) Humidity (%) Winds ( mph kmh ) Pressure ( in mb ) Visibility ( mi km ) Precip ( " mm )
12:53 am 00:53 Clear 68 20 66 18.9 93 93 Calm 30.01 1016 10 16 0.00 0.00
1:53 am 01:53 Clear 68 20 66 18.9 93 93 Calm 30.02 1017 10 16 0.00 0.00
2:53 am 02:53 Clear 67 19.4 65 18.3 93 93 Calm 30.02 1017 10 16 0.00 0.00
3:53 am 03:53 Clear 67 19.4 65 18.3 93 93 Calm 30.03 1017 10 16 0.00 0.00
4:53 am 04:53 Clear 67 19.4 65 18.3 93 93 Calm 30.03 1017 10 16 0.00 0.00
5:53 am 05:53 Clear 67 19.4 64 17.8 90 90 Calm 30.03 1017 10 16 0.00 0.00
6:53 am 06:53 Clear 67 19.4 64 17.8 90 90 Calm 30.04 1017 10 16 0.00 0.00
7:53 am 07:53 Sunny 65 18.3 63 17.2 93 93 Calm 30.06 1018 10 16 0.00 0.00
8:53 am 08:53 Sunny 68 20 64 17.8 87 87 E 3 6 30.08 1019 10 16 0.00 0.00
9:53 am 09:53 Sunny 72 22.2 64 17.8 76 76 Calm 30.09 1019 10 16 0.00 0.00
10:53 am 10:53 Sunny 74 23.3 64 17.8 71 71 VRB 3 6 30.11 1020 10 16 0.00 0.00
11:53 am 11:53 Sunny 78 25.6 64 17.8 62 62 Calm 30.10 1019 10 16 0.00 0.00
12:53 pm 12:53 Sunny 80 26.7 64 17.8 58 58 VRB 6 9 30.09 1019 10 16 0.00 0.00
1:53 pm 13:53 Sunny 82 27.8 64 17.8 55 55 VRB 5 7 30.08 1019 10 16 0.00 0.00
2:53 pm 14:53 Sunny 82 27.8 65 18.3 56 56 ESE 5 7 30.07 1018 10 16 0.00 0.00
3:53 pm 15:53 Sunny 80 26.7 65 18.3 60 60 SSE 6 9 30.06 1018 10 16 0.00 0.00
4:53 pm 16:53 Sunny 79 26.1 66 18.9 65 65 VRB 3 6 30.05 1018 10 16 0.00 0.00
5:53 pm 17:53 Sunny 77 25 65 18.3 66 66 ESE 5 7 30.05 1018 10 16 0.00 0.00
6:53 pm 18:53 Sunny 76 24.4 64 17.8 67 67 VRB 6 9 30.05 1018 10 16 0.00 0.00
7:53 pm 19:53 Sunny 75 23.9 65 18.3 71 71 Calm 30.05 1018 10 16 0.00 0.00
8:53 pm 20:53 Clear 72 22.2 65 18.3 79 79 Calm 30.06 1018 10 16 0.00 0.00
9:53 pm 21:53 Clear 72 22.2 66 18.9 82 82 ESE 3 6 30.07 1018 10 16 0.00 0.00
10:53 pm 22:53 Clear 71 21.7 67 19.4 87 87 Calm 30.09 1019 10 16 0.00 0.00
11:53 pm 23:53 Clear 72 22.2 66 18.9 82 82 VRB 3 6 30.08 1019 10 16 0.00 0.00

Powered by AerisWeather